[[{"header":{"parameterUnit":"m.s-1","parameterCategory":1,"la1":30.2991,"la2":30.254,"lo1":-89.0895,"lo2":-89.0444,"dy":0.0017,"dx":0.0017,"nx":28,"ny":28,"refTime":"2025-11-17T09:00:00:Z","depth":0,"parameterNumber":2,"parameterNumberName":"U-component_of_WINDS"},"data":[0,0,0,0,0,0,0,0,0,0,0,0,0,0,0,0,0,0,0,0,0,0,0,0,0,0,0,0,0,0,0,0,0,0,0,0,0,0,0,0,0,0,0,0,0,0,0,0,0,0,0,0,0,0,0,0,0,0,-0.963,-0.963,0,-0.9606,-0.9606,-0.9606,-0.9576,-0.9576,-0.9576,-0.9575,-0.9552,-0.9552,-0.9552,0,0,0,0,0,0,0,0,0,0,0,0,0,-0.9652,-0.9652,-0.963,-0.963,-0.963,-0.9606,-0.9606,-0.9606,-0.9577,-0.9576,-0.9575,-0.9575,-0.9552,-0.9552,-0.9552,0,0,0,0,0,0,0,0,0,0,0,0,0,-0.9637,-0.9652,-0.963,-0.9612,-0.961,-0.9606,-0.9606,-0.9606,-0.9577,-0.9576,-0.9575,-0.9575,-0.9552,-0.9552,-0.9552,-0.9564,0,0,-0.9551,-0.9551,0,0,0,0,0,0,0,0,-0.9638,-0.9636,-0.9615,-0.9613,-0.9611,-0.9594,-0.9605,-0.9592,-0.9577,-0.959,-0.9575,-0.9574,-0.9567,-0.9565,-0.9562,-0.9563,-0.9562,-0.9551,-0.9551,-0.9551,-0.9551,0,0,0,0,0,0,0,-0.9639,-0.9637,-0.9621,-0.9615,-0.9613,-0.9606,-0.9603,-0.9603,-0.9582,-0.9588,-0.9586,-0.9584,-0.9566,-0.9563,-0.9562,-0.9562,-0.9551,-0.9551,-0.9551,-0.9551,-0.9572,-0.9572,0,0,0,0,0,0,-0.9642,-0.9638,-0.9622,-0.962,-0.9623,-0.9606,-0.9603,-0.96,-0.9582,-0.9579,-0.9584,-0.9582,-0.9563,-0.9562,-0.9561,-0.9574,-0.9551,-0.9551,-0.955,-0.9571,-0.9572,-0.9573,0,0,0,0,0,0,-0.9643,-0.9641,-0.9623,-0.9628,-0.9626,-0.9606,-0.9604,-0.96,-0.9597,-0.9579,-0.9576,-0.9585,-0.9563,-0.9561,-0.9563,-0.9573,-0.955,-0.955,-0.957,-0.9571,-0.9572,-0.96,0,0,0,0,0,0,-0.9644,-0.9642,-0.9646,-0.9629,-0.9625,-0.9625,-0.9604,-0.96,-0.9596,-0.9594,-0.9579,-0.9576,-0.9562,-0.9564,-0.9563,-0.9572,-0.955,-0.9569,-0.9571,-0.9572,-0.9599,-0.9602,-0.9606,0,0,0,0,0,-0.9645,-0.9655,-0.9646,-0.9644,-0.963,-0.9626,-0.9624,-0.9608,-0.9597,-0.9602,-0.959,-0.9576,-0.9572,-0.9565,-0.9563,-0.9572,-0.9569,-0.957,-0.9572,-0.9597,-0.9602,-0.9605,0,0,0,0,0,0,-0.9674,-0.9653,-0.9642,-0.9648,-0.9639,-0.9621,-0.9626,-0.9613,-0.9608,-0.9605,-0.9586,-0.9583,-0.9588,-0.958,-0.9572,-0.9583,-0.9568,-0.957,-0.9588,-0.9592,-0.9595,-0.9597,-0.955,0,0,0,0,0,-0.9682,-0.9679,-0.9661,-0.9667,-0.9663,-0.9645,-0.9643,-0.9631,-0.9621,-0.9618,-0.9606,-0.9598,-0.9595,-0.9593,-0.9589,-0.9597,-0.9594,-0.9603,-0.9606,-0.9609,-0.9611,-0.9615,-0.9618,-0.9578,-0.9578,-0.9578,0,0,-0.9696,-0.9684,-0.9684,-0.9673,-0.9665,-0.9663,-0.9643,-0.9642,-0.9641,-0.9618,-0.9619,-0.9611,-0.96,-0.9605,-0.9607,-0.9599,-0.9621,-0.9611,-0.9614,-0.9614,-0.9617,-0.962,-0.9624,-0.9579,-0.9579,-0.9579,0,0,-0.9723,-0.9713,-0.9717,-0.9709,-0.9697,-0.9685,-0.9686,-0.967,-0.9663,-0.9664,-0.9647,-0.9645,-0.964,-0.9633,-0.9629,-0.9652,-0.9639,-0.9652,-0.967,-0.9674,-0.9677,-0.968,-0.9688,-0.9691,-0.9653,-0.9653,-0.9653,0,-0.9743,-0.974,-0.9721,-0.9722,-0.9717,-0.9696,-0.97,-0.9693,-0.9681,-0.9678,-0.9669,-0.9662,-0.9653,-0.9657,-0.9662,-0.966,-0.966,-0.9653,-0.9678,-0.968,-0.9683,-0.969,-0.9693,-0.9655,-0.9655,-0.9654,-0.9654,0,-0.9765,-0.9763,-0.9768,-0.9756,-0.9752,-0.9754,-0.9737,-0.9735,-0.9723,-0.9713,-0.9714,-0.9702,-0.9696,-0.9696,-0.9685,-0.9697,-0.9693,-0.9681,-0.9666,-0.9688,-0.9695,-0.9698,-0.9657,-0.9656,-0.9656,-0.9656,0,0,-0.981,-0.9787,-0.9789,-0.9783,-0.9767,-0.9766,-0.9767,-0.976,-0.9759,-0.9751,-0.9752,-0.9747,-0.9736,-0.9732,-0.972,-0.9723,-0.9742,-0.9711,-0.971,-0.9717,-0.9755,-0.9764,-0.9768,-0.9733,-0.9734,-0.9734,-0.9756,0,-0.9833,-0.9834,-0.9818,-0.9823,-0.9821,-0.98,-0.9802,-0.9792,-0.9782,-0.9779,-0.9768,-0.9766,-0.9751,-0.9748,-0.9751,-0.9739,-0.975,-0.9737,-0.9734,-0.9734,-0.9737,-0.9771,-0.9781,-0.9802,-0.9759,-0.9759,-0.976,0,-0.9861,-0.9854,-0.9859,-0.9843,-0.9841,-0.9843,-0.9834,-0.9832,-0.9821,-0.9813,-0.9808,-0.9794,-0.9795,-0.978,-0.9781,-0.9773,-0.9771,-0.9765,-0.9765,-0.9764,-0.9748,-0.9771,-0.9809,-0.9812,-0.9764,-0.9763,-0.9763,0,-0.9893,-0.9884,-0.9886,-0.9882,-0.9863,-0.9864,-0.9857,-0.9845,-0.9842,-0.9835,-0.9832,-0.9826,-0.9822,-0.9818,-0.9803,-0.9793,-0.9805,-0.9789,-0.9799,-0.98,-0.9803,-0.9803,-0.984,-0.9801,-0.9801,-0.9801,-0.9801,0,-0.9921,-0.9925,-0.99,-0.9901,-0.9905,-0.9886,-0.9891,-0.9881,-0.9871,-0.987,-0.9852,-0.9852,-0.9832,-0.9829,-0.9817,-0.982,-0.9818,-0.9813,-0.9809,-0.9814,-0.9815,-0.9812,-0.981,-0.9802,-0.9802,-0.9802,-0.9802,0,-0.9958,-0.9941,-0.9942,-0.9924,-0.9919,-0.9923,-0.9908,-0.9908,-0.9897,-0.9896,-0.9895,-0.9877,-0.9873,-0.9857,-0.985,-0.9842,-0.9848,-0.9842,-0.9852,-0.9849,-0.986,-0.9859,-0.9897,-0.9901,-0.986,-0.9861,-0.9861,0,-0.9976,-0.9979,-0.9961,-0.9959,-0.9952,-0.9948,-0.9944,-0.9926,-0.9923,-0.991,-0.9913,-0.9907,-0.9902,-0.9897,-0.9883,-0.9878,-0.9871,-0.9885,-0.987,-0.9875,-0.9871,-0.9871,-0.9871,-0.9888,-0.9888,-0.9889,-0.9889,0,-1.0012,-1.0003,-0.9998,-0.999,-0.9986,-0.9979,-0.9971,-0.997,-0.9949,-0.9947,-0.9942,-0.9938,-0.993,-0.9925,-0.9917,-0.9909,-0.9896,-0.9894,-0.9896,-0.9901,-0.9906,-0.9903,-0.986,-0.9893,-0.9893,-0.9892,-0.9892,-0.9892,-1.004,-1.0041,-1.0028,-1.0023,-1.0015,-1.0007,-1.0007,-0.9995,-0.9991,-0.9982,-0.9972,-0.9969,-0.9958,-0.9945,-0.9939,-0.9936,-0.9929,-0.9932,-0.9932,-0.9933,-0.9936,-0.9906,-0.9935,-0.9935,-0.9935,-0.9934,-0.9934,0,-1.0074,-1.0065,-1.006,-1.0049,-1.0045,-1.0032,-1.0022,-1.002,-1.0017,-1.0007,-1.0002,-0.9997,-0.9992,-0.9978,-0.9972,-0.9972,-0.9966,-0.9971,-0.9971,-0.9969,-0.9943,-0.9942,-0.9976,-0.9976,-0.9976,-0.9976,-0.9976,-0.9976,-1.0091,-1.0092,-1.0082,-1.0079,-1.007,-1.0066,-1.0061,-1.0055,-1.0047,-1.0042,-1.0037,-1.0028,-1.0017,-1.0009,-1.0004,-1.0,-0.9998,-1.0006,-1.0,-0.9975,-0.9971,-0.9967,-0.9966,-1.0006,-1.0006,-1.0027,-1.0027,-1.0027]},{"header":{"parameterUnit":"m.s-1","parameterCategory":1,"la1":30.2991,"la2":30.254,"lo1":-89.0895,"lo2":-89.0444,"dy":0.0017,"dx":0.0017,"nx":28,"ny":28,"refTime":"2025-11-17T09:00:00:Z","depth":0,"parameterNumber":3,"parameterNumberName":"V-component_of_WINDS"},"data":[0,0,0,0,0,0,0,0,0,0,0,0,0,0,0,0,0,0,0,0,0,0,0,0,0,0,0,0,0,0,0,0,0,0,0,0,0,0,0,0,0,0,0,0,0,0,0,0,0,0,0,0,0,0,0,0,0,0,0.5895,0.5895,0,0.5876,0.5876,0.5875,0.5866,0.5866,0.5866,0.5866,0.5846,0.5845,0.5844,0,0,0,0,0,0,0,0,0,0,0,0,0,0.5923,0.5923,0.5895,0.5895,0.5895,0.5876,0.5876,0.5875,0.5866,0.5866,0.5866,0.5866,0.5846,0.5845,0.5844,0,0,0,0,0,0,0,0,0,0,0,0,0,0.5908,0.5923,0.5895,0.5888,0.5887,0.5876,0.5876,0.5875,0.5866,0.5866,0.5866,0.5866,0.5846,0.5845,0.5844,0.584,0,0,0.5842,0.5842,0,0,0,0,0,0,0,0,0.5909,0.5907,0.5889,0.5888,0.5887,0.5873,0.5878,0.5863,0.5866,0.5874,0.5866,0.5866,0.5855,0.5853,0.585,0.5839,0.5838,0.5842,0.5841,0.5841,0.5841,0,0,0,0,0,0,0,0.591,0.5908,0.5888,0.5889,0.5888,0.5885,0.5883,0.5875,0.5864,0.5873,0.5872,0.587,0.5854,0.585,0.5849,0.5838,0.5842,0.5841,0.5841,0.584,0.5821,0.5821,0,0,0,0,0,0,0.5913,0.5909,0.5888,0.5887,0.5898,0.5885,0.5882,0.5878,0.5865,0.5863,0.587,0.587,0.5852,0.585,0.5848,0.5842,0.5841,0.584,0.584,0.5822,0.5821,0.5821,0,0,0,0,0,0,0.5913,0.5911,0.5889,0.5898,0.5895,0.5884,0.5879,0.5877,0.5873,0.5862,0.586,0.5868,0.5852,0.5849,0.5842,0.5841,0.584,0.5839,0.5822,0.5822,0.5821,0.5829,0,0,0,0,0,0,0.5914,0.5911,0.5909,0.5898,0.5894,0.5883,0.5879,0.5877,0.5872,0.5871,0.586,0.5858,0.5851,0.5843,0.5841,0.584,0.5839,0.5822,0.5822,0.5821,0.5829,0.5829,0.5829,0,0,0,0,0,0.5915,0.5912,0.5909,0.5907,0.5892,0.5883,0.5881,0.5873,0.5872,0.587,0.5863,0.5859,0.5841,0.5842,0.584,0.5839,0.5822,0.5822,0.5821,0.5828,0.5829,0.5829,0,0,0,0,0,0,0.5924,0.5911,0.5907,0.59,0.5893,0.5881,0.5879,0.5874,0.5867,0.5867,0.5857,0.5855,0.5848,0.5843,0.5844,0.5833,0.5831,0.583,0.5837,0.5837,0.5838,0.5839,0.5838,0,0,0,0,0,0.5925,0.5919,0.5908,0.5903,0.5899,0.589,0.5885,0.588,0.5872,0.5869,0.5861,0.5853,0.5846,0.5841,0.5834,0.5828,0.5825,0.5825,0.5826,0.5826,0.5826,0.5822,0.5822,0.5821,0.5821,0.5821,0,0,0.5927,0.5919,0.5916,0.5904,0.5898,0.5892,0.5887,0.5881,0.5876,0.5868,0.586,0.5854,0.5845,0.5838,0.5834,0.5833,0.5825,0.5826,0.5827,0.5826,0.5822,0.5822,0.5822,0.5821,0.5821,0.5821,0,0,0.5928,0.5922,0.5917,0.591,0.5901,0.5894,0.5893,0.5882,0.5878,0.587,0.5864,0.5858,0.5846,0.5839,0.5834,0.5833,0.5828,0.583,0.5833,0.5829,0.5829,0.5829,0.5828,0.5828,0.583,0.583,0.583,0,0.5932,0.5923,0.5915,0.5909,0.5904,0.5896,0.5891,0.5885,0.5874,0.587,0.5869,0.5853,0.5846,0.5838,0.5837,0.5833,0.5832,0.5832,0.5829,0.5829,0.5829,0.5828,0.5828,0.5831,0.5831,0.583,0.583,0,0.5928,0.5922,0.5919,0.5908,0.5903,0.5897,0.5888,0.5884,0.5879,0.5873,0.5865,0.5856,0.5847,0.5844,0.584,0.5835,0.5834,0.5831,0.5829,0.583,0.5829,0.5829,0.5831,0.5831,0.5831,0.5831,0,0,0.5935,0.5919,0.5918,0.5913,0.5902,0.5896,0.589,0.5881,0.5878,0.587,0.5864,0.5854,0.5851,0.5846,0.584,0.5837,0.5836,0.5834,0.5834,0.5835,0.583,0.5832,0.5832,0.5833,0.5833,0.5833,0.5831,0,0.5934,0.5923,0.5916,0.5908,0.5901,0.5894,0.5889,0.5881,0.5875,0.5868,0.5862,0.5854,0.5851,0.5848,0.5844,0.5837,0.5835,0.5837,0.5828,0.5827,0.583,0.5831,0.5834,0.5832,0.583,0.583,0.583,0,0.5932,0.5925,0.5916,0.5905,0.5902,0.5897,0.5888,0.5883,0.5874,0.5869,0.5863,0.5857,0.585,0.5849,0.5839,0.584,0.5836,0.5832,0.5832,0.5831,0.5829,0.583,0.5832,0.5832,0.5829,0.5829,0.583,0,0.5938,0.5925,0.5918,0.5914,0.5901,0.5898,0.5892,0.5883,0.5879,0.5871,0.5867,0.5859,0.5854,0.5847,0.5839,0.5839,0.583,0.5828,0.5826,0.5827,0.5825,0.5825,0.5826,0.5822,0.5822,0.5822,0.5822,0,0.5938,0.5933,0.5921,0.5916,0.591,0.5902,0.5896,0.589,0.5882,0.5876,0.5869,0.5864,0.5853,0.5847,0.584,0.5833,0.5831,0.5827,0.5826,0.5828,0.5829,0.5825,0.5825,0.5822,0.5822,0.5822,0.5822,0,0.5943,0.5935,0.5927,0.5915,0.5912,0.5908,0.5898,0.5893,0.5887,0.588,0.5877,0.5867,0.5859,0.585,0.5839,0.5835,0.5828,0.5826,0.5831,0.583,0.5829,0.5829,0.5828,0.5827,0.5824,0.5824,0.5824,0,0.5944,0.594,0.5928,0.5923,0.5918,0.5911,0.5906,0.5897,0.5892,0.5881,0.5878,0.5869,0.5862,0.5849,0.584,0.5832,0.5829,0.5829,0.5828,0.583,0.5829,0.583,0.5829,0.583,0.583,0.583,0.583,0,0.5946,0.5942,0.5935,0.5926,0.592,0.5913,0.5905,0.5902,0.5892,0.5886,0.5878,0.5872,0.5861,0.5852,0.5843,0.5837,0.5831,0.583,0.583,0.5832,0.5835,0.5833,0.5832,0.583,0.583,0.583,0.583,0.583,0.5949,0.5945,0.5936,0.5928,0.5921,0.5914,0.591,0.5902,0.5895,0.5885,0.588,0.5872,0.5863,0.5849,0.5843,0.5836,0.5835,0.5834,0.5833,0.5833,0.5834,0.5836,0.5834,0.5834,0.5834,0.5834,0.5834,0,0.5951,0.5945,0.5937,0.5927,0.5921,0.5917,0.5908,0.5903,0.5896,0.5887,0.588,0.587,0.5862,0.5853,0.5843,0.584,0.5837,0.5838,0.5838,0.5837,0.5836,0.5837,0.584,0.584,0.584,0.584,0.584,0.584,0.5951,0.5944,0.5939,0.5928,0.5922,0.5914,0.5909,0.5902,0.5896,0.5885,0.5878,0.5872,0.5863,0.5853,0.5845,0.5843,0.584,0.5841,0.5838,0.5837,0.5837,0.5836,0.5838,0.584,0.584,0.5839,0.5839,0.5839]}]]